timestamp,surface_pressure_avg,surface_temp_avg,battery_voltage,lat,long
2020-09-22 00:09:01+00:00,237.8464,14.7,12.73,47.84626,-54.09684
2020-09-22 00:19:01+00:00,242.4914,14.7,12.73,47.84626,-54.09684
2020-09-22 00:29:01+00:00,247.3081,14.7,12.73,47.84626,-54.09684
2020-09-22 00:39:01+00:00,254.97799999999998,14.7,12.73,47.84626,-54.09684
2020-09-22 00:49:01+00:00,262.9014,14.6,12.73,47.84626,-54.09684
2020-09-22 00:59:01+00:00,269.3598,14.4,12.73,47.84626,-54.09684
2020-09-22 01:09:01+00:00,282.4514,14.45,12.73,47.84626,-54.09684
2020-09-22 01:19:01+00:00,296.5547,14.49,12.73,47.84626,-54.09684
2020-09-22 01:29:01+00:00,304.1496,14.4,12.73,47.84626,-54.09684
2020-09-22 01:39:01+00:00,305.4198,14.33,12.73,47.84626,-54.09684
2020-09-22 01:49:01+00:00,311.8047,14.61,12.73,47.84626,-54.09684
2020-09-22 01:59:01+00:00,322.5864,14.69,12.73,47.84626,-54.09684
2020-09-22 02:09:01+00:00,329.163,14.62,12.73,47.84626,-54.09684
2020-09-22 02:19:01+00:00,327.7312,14.68,12.73,47.84626,-54.09684
2020-09-22 02:29:01+00:00,327.7079,14.7,12.73,47.84626,-54.09684
2020-09-22 02:39:01+00:00,332.0080000000001,14.7,12.73,47.84626,-54.09684
2020-09-22 02:49:01+00:00,336.0663,14.7,12.73,47.84626,-54.09684
2020-09-22 02:59:01+00:00,333.7014,14.69,12.73,47.84626,-54.09684
2020-09-22 03:09:01+00:00,329.4247,14.7,12.73,47.84626,-54.09684
2020-09-22 03:19:01+00:00,328.9214,14.75,12.73,47.84626,-54.09684
2020-09-22 03:29:01+00:00,330.1997,14.79,12.73,47.84626,-54.09684
2020-09-22 03:39:01+00:00,329.2114,14.8,12.73,47.84626,-54.09684
2020-09-22 03:49:01+00:00,324.5764,14.76,12.73,47.84626,-54.09684
2020-09-22 03:59:01+00:00,318.5696,14.71,12.73,47.84626,-54.09684
2020-09-22 04:09:01+00:00,318.8297,14.74,12.73,47.84626,-54.09684
2020-09-22 04:19:01+00:00,314.7864,14.7,12.73,47.84626,-54.09684
2020-09-22 04:29:01+00:00,309.858,14.7,12.73,47.84626,-54.09684
2020-09-22 04:39:01+00:00,306.6031,14.7,12.73,47.84626,-54.09684
2020-09-22 04:49:01+00:00,305.1396,14.71,12.73,47.84626,-54.09684
2020-09-22 04:59:01+00:00,298.6113,14.79,12.73,47.84626,-54.09684
2020-09-22 05:09:01+00:00,294.5363,14.8,12.73,47.84626,-54.09684
2020-09-22 05:19:01+00:00,291.493,14.8,12.65,47.84626,-54.09684
2020-09-22 05:29:01+00:00,285.8314,14.8,12.65,47.84626,-54.09684
2020-09-22 05:39:01+00:00,277.4697,14.8,12.65,47.84626,-54.09684
2020-09-22 05:49:01+00:00,271.4247,14.74,12.65,47.84626,-54.09684
2020-09-22 05:59:01+00:00,263.5247,14.7,12.65,47.84626,-54.09684
2020-09-22 06:09:01+00:00,252.2047,14.6,12.65,47.84626,-54.09684
2020-09-22 06:19:01+00:00,241.9014,14.5,12.65,47.84626,-54.09684
2020-09-22 06:29:01+00:00,232.7781,14.5,12.65,47.84626,-54.09684
2020-09-22 06:39:01+00:00,221.5481,14.4,12.65,47.84626,-54.09684
2020-09-22 06:49:01+00:00,209.2648,14.4,12.65,47.84626,-54.09684
2020-09-22 06:59:01+00:00,198.8715,14.4,12.65,47.84626,-54.09684
2020-09-22 07:09:01+00:00,190.4548,14.4,12.65,47.84626,-54.09684
2020-09-22 07:19:01+00:00,182.4815,14.4,12.65,47.84626,-54.09684
2020-09-22 07:29:01+00:00,176.4581,14.4,12.65,47.84626,-54.09684
2020-09-22 07:39:01+00:00,169.9398,14.4,12.65,47.84626,-54.09684
2020-09-22 07:49:01+00:00,167.1831,14.4,12.65,47.84626,-54.09684
2020-09-22 07:59:01+00:00,168.4215,14.4,12.65,47.84626,-54.09684
2020-09-22 08:09:01+00:00,162.4815,14.4,12.65,47.84626,-54.09684
2020-09-22 08:19:01+00:00,158.1382,14.5,12.65,47.84626,-54.09684
2020-09-22 08:29:01+00:00,166.7081,14.6,12.65,47.84626,-54.09684
2020-09-22 08:39:01+00:00,170.4631,14.58,12.65,47.84626,-54.09684
2020-09-22 08:49:01+00:00,161.2782,14.5,12.65,47.84626,-54.09684
2020-09-22 08:59:01+00:00,165.9415,14.55,12.65,47.84626,-54.09684
2020-09-22 09:09:01+00:00,180.4498,14.61,12.65,47.84626,-54.09684
2020-09-22 09:19:01+00:00,182.2598,14.68,12.65,47.84626,-54.09684
2020-09-22 09:29:01+00:00,179.3649,14.7,12.65,47.84626,-54.09684
2020-09-22 09:39:01+00:00,183.5265,14.76,12.65,47.84626,-54.09684
2020-09-22 09:49:01+00:00,193.3115,14.77,12.65,47.84626,-54.09684
2020-09-22 09:59:01+00:00,194.9348,14.7,12.65,47.84626,-54.09684
2020-09-22 10:09:01+00:00,195.0131,14.7,12.65,47.84626,-54.09684
2020-09-22 10:19:01+00:00,200.4031,14.7,12.73,47.84626,-54.09684
2020-09-22 10:29:01+00:00,202.4765,14.7,12.73,47.84626,-54.09684
2020-09-22 10:39:01+00:00,204.7165,14.72,12.73,47.84626,-54.09684
2020-09-22 10:49:01+00:00,205.6032,14.78,12.73,47.84626,-54.09684
2020-09-22 10:59:01+00:00,207.1247,14.8,12.73,47.84626,-54.09684
2020-09-22 11:09:01+00:00,212.4948,14.8,12.73,47.84626,-54.09684
2020-09-22 11:19:01+00:00,218.8748,14.8,13.37,47.84626,-54.09684
2020-09-22 11:29:01+00:00,221.6148,14.8,13.37,47.84626,-54.09684
2020-09-22 11:39:01+00:00,226.4148,14.8,13.37,47.84626,-54.09684
2020-09-22 11:49:01+00:00,233.0565,14.8,13.37,47.84626,-54.09684
2020-09-22 11:59:01+00:00,238.5331,14.78,13.37,47.84626,-54.09684
2020-09-22 12:09:01+00:00,241.5148,14.73,13.37,47.84626,-54.09684
2020-09-22 12:19:01+00:00,245.9348,14.75,13.76,47.84626,-54.09684
2020-09-22 12:29:01+00:00,254.5864,14.75,13.76,47.84626,-54.09684
2020-09-22 12:39:01+00:00,264.8364,14.78,13.76,47.84626,-54.09684
2020-09-22 12:49:01+00:00,272.8681,14.79,13.76,47.84626,-54.09684
2020-09-22 12:59:01+00:00,273.8348,14.8,13.76,47.84626,-54.09684
2020-09-22 13:09:01+00:00,280.8447,14.8,13.76,47.84626,-54.09684
2020-09-22 13:19:01+00:00,298.7414,14.8,14.24,47.84626,-54.09684
2020-09-22 13:29:01+00:00,314.3863,14.8,14.24,47.84626,-54.09684
2020-09-22 13:39:01+00:00,319.2764,14.8,14.24,47.84626,-54.09684
2020-09-22 13:49:01+00:00,325.3763,14.8,14.24,47.84626,-54.09684
2020-09-22 13:59:01+00:00,333.9963,14.8,14.24,47.84626,-54.09684
2020-09-22 14:09:01+00:00,337.9431,14.8,14.24,47.84626,-54.09684
2020-09-22 14:19:01+00:00,338.6197,14.8,14.32,47.84626,-54.09684
2020-09-22 14:29:01+00:00,344.9379,14.8,14.32,47.84626,-54.09684
2020-09-22 14:39:01+00:00,351.8597,14.8,14.32,47.84626,-54.09684
2020-09-22 14:49:01+00:00,351.5496,14.8,14.32,47.84626,-54.09684
2020-09-22 14:59:01+00:00,351.6946,14.8,14.32,47.84626,-54.09684
2020-09-22 15:09:01+00:00,357.5946,14.8,14.32,47.84626,-54.09684
2020-09-22 15:19:01+00:00,362.7062,14.8,14.32,47.84626,-54.09684
2020-09-22 15:29:01+00:00,360.6096,14.8,14.32,47.84626,-54.09684
2020-09-22 15:39:01+00:00,362.9396,14.8,14.32,47.84626,-54.09684
2020-09-22 15:49:01+00:00,364.49300000000005,14.82,14.32,47.84626,-54.09684
2020-09-22 15:59:01+00:00,359.1729,14.85,14.32,47.84626,-54.09684
2020-09-22 16:09:01+00:00,351.5012,14.82,14.32,47.84626,-54.09684
2020-09-22 16:19:01+00:00,347.9547,14.82,14.24,47.84626,-54.09684
2020-09-22 16:29:01+00:00,348.0198,14.84,14.24,47.84626,-54.09684
2020-09-22 16:39:01+00:00,348.7897,14.85,14.24,47.84626,-54.09684
2020-09-22 16:49:01+00:00,351.0729,14.86,14.24,47.84626,-54.09684
2020-09-22 16:59:01+00:00,348.8013,14.85,14.24,47.84626,-54.09684
2020-09-22 17:09:01+00:00,345.3612,14.87,14.24,47.84626,-54.09684
2020-09-22 17:19:01+00:00,340.0113,14.87,14.08,47.84626,-54.09684
2020-09-22 17:29:01+00:00,333.5214,14.85,14.08,47.84626,-54.09684
2020-09-22 17:39:01+00:00,330.4446,14.84,14.08,47.84626,-54.09684
2020-09-22 17:49:01+00:00,322.0947,14.87,14.08,47.84626,-54.09684
2020-09-22 17:59:01+00:00,302.4797,14.88,14.08,47.84626,-54.09684
2020-09-22 18:09:01+00:00,286.0297,14.89,14.08,47.84626,-54.09684
2020-09-22 18:19:01+00:00,289.733,14.9,13.84,47.84626,-54.09684
2020-09-22 18:29:01+00:00,285.3181,14.89,13.84,47.84626,-54.09684
2020-09-22 18:39:01+00:00,267.7597,14.89,13.84,47.84626,-54.09684
2020-09-22 18:49:01+00:00,254.7181,14.9,13.84,47.84626,-54.09684
2020-09-22 18:59:01+00:00,253.4281,14.9,13.84,47.84626,-54.09684
2020-09-22 19:09:01+00:00,242.9147,14.9,13.84,47.84626,-54.09684
2020-09-22 19:19:01+00:00,223.8181,14.89,13.68,47.84626,-54.09684
2020-09-22 19:29:01+00:00,216.0182,14.9,13.68,47.84626,-54.09684
2020-09-22 19:39:01+00:00,212.6798,14.9,13.68,47.84626,-54.09684
2020-09-22 19:49:01+00:00,197.6781,14.89,13.68,47.84626,-54.09684
2020-09-22 19:59:01+00:00,191.2281,14.89,13.68,47.84626,-54.09684
2020-09-22 20:09:01+00:00,196.1681,14.88,13.68,47.84626,-54.09684
2020-09-22 20:19:01+00:00,194.3498,14.87,13.37,47.84626,-54.09684
2020-09-22 20:29:01+00:00,190.6931,14.89,13.37,47.84626,-54.09684
2020-09-22 20:39:01+00:00,192.3748,14.89,13.37,47.84626,-54.09684
2020-09-22 20:49:01+00:00,189.6281,14.88,13.37,47.84626,-54.09684
2020-09-22 20:59:01+00:00,186.6297,14.88,13.37,47.84626,-54.09684
2020-09-22 21:09:01+00:00,193.0665,14.88,13.37,47.84626,-54.09684
2020-09-22 21:19:01+00:00,193.1165,14.86,13.05,47.84626,-54.09684
2020-09-22 21:29:01+00:00,192.6948,14.84,13.05,47.84626,-54.09684
2020-09-22 21:39:01+00:00,197.1015,14.84,13.05,47.84626,-54.09684
2020-09-22 21:49:01+00:00,207.4798,14.84,13.05,47.84626,-54.09684
2020-09-22 21:59:01+00:00,212.9931,14.87,13.05,47.84626,-54.09684
2020-09-22 22:09:01+00:00,213.4998,14.8,13.05,47.84626,-54.09684
2020-09-22 22:19:01+00:00,219.953,14.8,12.81,47.84626,-54.09684
2020-09-22 22:29:01+00:00,225.2497,14.8,12.81,47.84626,-54.09684
2020-09-22 22:39:01+00:00,218.5348,14.8,12.81,47.84626,-54.09684
2020-09-22 22:49:01+00:00,214.8014,14.73,12.81,47.84626,-54.09684
2020-09-22 22:59:01+00:00,221.7515,14.74,12.81,47.84626,-54.09684
2020-09-22 23:09:01+00:00,218.8164,14.7,12.81,47.84626,-54.09684
2020-09-22 23:19:01+00:00,216.8481,14.7,12.73,47.84626,-54.09684
2020-09-22 23:29:01+00:00,224.1814,14.7,12.73,47.84626,-54.09684
2020-09-22 23:39:01+00:00,231.0147,14.8,12.73,47.84626,-54.09684
2020-09-22 23:49:01+00:00,233.7381,14.78,12.73,47.84626,-54.09684
2020-09-22 23:59:01+00:00,234.8814,14.7,12.73,47.84626,-54.09684
